Weather History for Mount Sterling, KY

Change the Weather History Date:

Wednesday, October 23, 2013

  Actual Average Record
Temperature  
Mean Temperature 38 °F -  
Max Temperature 44 °F 66 °F 59 °F (2014)
Min Temperature 33 °F 40 °F 33 °F (2013)
Degree Days  
Heating Degree Days 26    
Moisture  
Dew Point 38 °F    
Average Humidity 87    
Maximum Humidity 100    
Minimum Humidity 70    
Precipitation  
Precipitation 0.06 in - - ()
Sea Level Pressure  
Sea Level Pressure 29.93 in    
Wind  
Wind Speed 6 mph (West)    
Max Wind Speed 17 mph    
Max Gust Speed 25 mph    
Visibility 9 miles    
Events Rain    
Averages and records for this station are not official NWS values.
T = Trace of Precipitation, MM = Missing Value Source: NWS Daily Summary

Daily Weather History Graph

Daily Weather History Graph

Search for Another Location

Airport:

Trip Planner

Search our weather history database for the weather conditions in past years. The results will help you decide how hot, cold, wet, or windy it might be!

Date:

Astronomy

Oct. 23, 2013 Rise Set
Actual Time 7:52 AM EDT 6:47 PM EDT
Civil Twilight 7:25 AM EDT 7:13 PM EDT
Nautical Twilight 6:55 AM EDT 7:44 PM EDT
Astronomical Twilight 6:24 AM EDT 8:15 PM EDT
Moon 10:19 PM EDT (10/23) 12:06 PM EDT (10/23)
Length of Visible Light 11h 48m
Length of Day
10h 54m
Waning Gibbous, 79% of the Moon is Illuminated
Oct 23
Waning Gibbous
Oct 26
Last Quarter
Nov 3
New
Nov 10
First Quarter
Nov 17
Full

Hourly Weather History & Observations

Time (EDT) Temp. Windchill Dew Point Humidity Pressure Visibility Wind Dir Wind Speed Gust Speed Precip Events Conditions
12:15 AM 44.6 °F 43.1 °F 37.4 °F 76% 29.86 in 10.0 mi WSW 3.5 mph - N/A   Overcast
12:35 AM 44.6 °F - 37.4 °F 76% 29.86 in 10.0 mi Calm Calm - N/A   Overcast
12:55 AM 44.6 °F - 35.6 °F 71% 29.85 in 10.0 mi Calm Calm - N/A   Overcast
1:15 AM 42.8 °F - 39.2 °F 87% 29.85 in 10.0 mi Calm Calm - N/A   Overcast
1:35 AM 44.6 °F - 37.4 °F 76% 29.83 in 10.0 mi Calm Calm - N/A   Overcast
1:55 AM 44.6 °F 43.1 °F 37.4 °F 76% 29.83 in 10.0 mi SSW 3.5 mph - N/A   Overcast
2:15 AM 44.6 °F 43.1 °F 39.2 °F 81% 29.82 in 10.0 mi SW 3.5 mph - N/A   Overcast
2:35 AM 44.6 °F 40.7 °F 39.2 °F 81% 29.81 in 10.0 mi SSW 6.9 mph - N/A   Drizzle
2:55 AM 44.6 °F 40.7 °F 41.0 °F 87% 29.81 in 10.0 mi SSW 6.9 mph - N/A   Light Drizzle
3:15 AM 44.6 °F 40.7 °F 42.8 °F 93% 29.79 in 10.0 mi South 6.9 mph - N/A Rain Rain
3:35 AM 44.6 °F 42.2 °F 42.8 °F 93% 29.78 in 10.0 mi SW 4.6 mph - N/A Rain Rain
3:55 AM 44.6 °F 42.2 °F 42.8 °F 93% 29.78 in 10.0 mi WSW 4.6 mph - 0.01 in   Overcast
4:15 AM 44.6 °F 39.7 °F 42.8 °F 93% 29.78 in 7.0 mi WSW 9.2 mph - N/A Rain Light Rain
4:35 AM 44.6 °F 42.2 °F 42.8 °F 93% 29.76 in 10.0 mi WSW 4.6 mph - 0.03 in Rain Light Rain
4:55 AM 44.6 °F 42.2 °F 42.8 °F 93% 29.76 in 10.0 mi WSW 4.6 mph - 0.04 in Rain Rain
5:15 AM 44.6 °F 42.2 °F 42.8 °F 93% 29.76 in 10.0 mi WSW 4.6 mph - N/A Rain Light Rain
5:35 AM 44.6 °F 40.7 °F 44.6 °F 100% 29.76 in 10.0 mi West 6.9 mph - N/A   Overcast
5:55 AM 44.6 °F 40.7 °F 44.6 °F 100% 29.76 in 10.0 mi West 6.9 mph - N/A   Overcast
6:15 AM 44.6 °F 38.8 °F 44.6 °F 100% 29.76 in 10.0 mi West 11.5 mph - N/A   Overcast
6:35 AM 44.6 °F 39.7 °F 42.8 °F 93% 29.76 in 10.0 mi West 9.2 mph - N/A   Overcast
6:55 AM 44.6 °F 40.7 °F 42.8 °F 93% 29.78 in 10.0 mi West 6.9 mph - N/A   Overcast
7:15 AM 44.6 °F 39.7 °F 42.8 °F 93% 29.78 in 10.0 mi West 9.2 mph - N/A   Overcast
7:35 AM 44.6 °F 39.7 °F 42.8 °F 93% 29.78 in 10.0 mi WNW 9.2 mph - N/A   Overcast
7:55 AM 44.6 °F 39.2 °F 41.0 °F 87% 29.79 in 10.0 mi WNW 10.4 mph 23.0 mph N/A   Overcast
8:15 AM 44.6 °F 38.4 °F 39.2 °F 81% 29.80 in 10.0 mi WNW 12.7 mph 20.7 mph N/A   Overcast
8:35 AM 44.6 °F 39.2 °F 39.2 °F 81% 29.81 in 10.0 mi WNW 10.4 mph 19.6 mph N/A   Overcast
8:55 AM 42.8 °F 37.0 °F 41.0 °F 93% 29.83 in 5.0 mi WNW 10.4 mph 25.3 mph N/A Rain Rain
9:15 AM 42.8 °F 36.2 °F 41.0 °F 93% 29.83 in 7.0 mi WNW 12.7 mph 18.4 mph N/A   Overcast
9:35 AM 42.8 °F 34.8 °F 41.0 °F 93% 29.84 in 10.0 mi West 17.3 mph 21.9 mph N/A   Overcast
9:55 AM 42.8 °F 35.1 °F 39.2 °F 87% 29.85 in 7.0 mi West 16.1 mph 23.0 mph N/A   Overcast
10:15 AM 41.0 °F 33.5 °F 39.2 °F 93% 29.86 in 5.0 mi WNW 13.8 mph 24.2 mph N/A Rain Light Rain
10:35 AM 41.0 °F 33.9 °F 39.2 °F 93% 29.88 in 4.0 mi WNW 12.7 mph 21.9 mph N/A Rain Light Rain
10:55 AM 41.0 °F 33.5 °F 39.2 °F 93% 29.89 in 5.0 mi WNW 13.8 mph 21.9 mph N/A Rain Light Rain
11:15 AM 41.0 °F 34.3 °F 39.2 °F 93% 29.90 in 2.5 mi NW 11.5 mph 23.0 mph N/A Rain Rain
11:35 AM 39.2 °F 31.2 °F 37.4 °F 93% 29.92 in 3.0 mi NW 13.8 mph 23.0 mph N/A Rain Light Rain
11:55 AM 39.2 °F 31.6 °F 37.4 °F 93% 29.94 in 3.0 mi NW 12.7 mph 25.3 mph 0.01 in Rain Rain
12:15 PM 37.4 °F 30.3 °F 37.4 °F 100% 29.95 in 10.0 mi NW 10.4 mph 17.3 mph N/A   Overcast
12:35 PM 37.4 °F 29.3 °F 37.4 °F 100% 29.96 in 5.0 mi NW 12.7 mph 19.6 mph N/A   Drizzle
12:55 PM 37.4 °F 31.4 °F 37.4 °F 100% 29.98 in 7.0 mi NW 8.1 mph 16.1 mph N/A   Light Drizzle
1:15 PM 37.4 °F 30.8 °F 35.6 °F 93% 29.98 in 10.0 mi NW 9.2 mph 21.9 mph N/A   Overcast
1:35 PM 37.4 °F 30.8 °F 35.6 °F 93% 29.98 in 10.0 mi NW 9.2 mph 16.1 mph N/A   Overcast
1:55 PM 37.4 °F 29.8 °F 35.6 °F 93% 29.99 in 10.0 mi NNW 11.5 mph 18.4 mph N/A   Overcast
2:15 PM 39.2 °F 34.2 °F 35.6 °F 87% 29.99 in 10.0 mi NW 6.9 mph 16.1 mph N/A   Overcast
2:35 PM 41.0 °F 37.1 °F 35.6 °F 81% 29.99 in 10.0 mi NW 5.8 mph - N/A   Overcast
2:55 PM 41.0 °F 37.1 °F 35.6 °F 81% 30.00 in 10.0 mi NW 5.8 mph - N/A   Overcast
3:15 PM 42.8 °F 40.1 °F 37.4 °F 81% 30.00 in 10.0 mi WNW 4.6 mph - N/A   Overcast
3:35 PM 42.8 °F 38.0 °F 35.6 °F 76% 30.00 in 10.0 mi WNW 8.1 mph - N/A   Overcast
3:55 PM 41.0 °F 37.1 °F 35.6 °F 81% 30.01 in 10.0 mi WNW 5.8 mph - N/A   Overcast
4:15 PM 42.8 °F 38.6 °F 35.6 °F 76% 30.01 in 10.0 mi West 6.9 mph - N/A   Overcast
4:35 PM 42.8 °F 39.3 °F 33.8 °F 70% 30.02 in 10.0 mi NW 5.8 mph - N/A   Overcast
4:55 PM 42.8 °F 39.3 °F 33.8 °F 70% 30.03 in 10.0 mi NW 5.8 mph - N/A   Overcast
5:15 PM 42.8 °F 38.0 °F 33.8 °F 70% 30.03 in 10.0 mi NW 8.1 mph - N/A   Overcast
5:35 PM 42.8 °F 40.1 °F 33.8 °F 70% 30.04 in 10.0 mi NW 4.6 mph - N/A   Overcast
5:55 PM 42.8 °F 38.6 °F 33.8 °F 70% 30.04 in 10.0 mi NW 6.9 mph - N/A   Overcast
6:15 PM 42.8 °F 40.1 °F 33.8 °F 70% 30.04 in 10.0 mi West 4.6 mph - N/A   Overcast
6:35 PM 42.8 °F - 35.6 °F 76% 30.05 in 10.0 mi Calm Calm - N/A Rain Light Rain
6:55 PM 41.0 °F - 35.6 °F 81% 30.05 in 10.0 mi Calm Calm - N/A   Overcast
7:15 PM 41.0 °F - 35.6 °F 81% 30.05 in 10.0 mi Calm Calm - N/A   Overcast
7:35 PM 39.2 °F 37.0 °F 35.6 °F 87% 30.06 in 10.0 mi WSW 3.5 mph - N/A   Scattered Clouds
7:55 PM 37.4 °F 34.9 °F 35.6 °F 93% 30.06 in 10.0 mi WSW 3.5 mph - N/A   Clear
8:15 PM 37.4 °F 34.9 °F 35.6 °F 93% 30.06 in 10.0 mi West 3.5 mph - N/A   Scattered Clouds
8:35 PM 35.6 °F 32.8 °F 33.8 °F 93% 30.07 in 10.0 mi West 3.5 mph - N/A   Scattered Clouds
8:55 PM 35.6 °F 32.8 °F 33.8 °F 93% 30.07 in 10.0 mi West 3.5 mph - N/A   Clear
9:15 PM 35.6 °F 31.7 °F 33.8 °F 93% 30.06 in 10.0 mi WSW 4.6 mph - N/A   Scattered Clouds
9:35 PM 33.8 °F 29.6 °F 33.8 °F 100% 30.06 in 10.0 mi WSW 4.6 mph - N/A   Scattered Clouds
9:55 PM 35.6 °F 31.7 °F 33.8 °F 93% 30.07 in 10.0 mi West 4.6 mph - N/A   Mostly Cloudy
10:15 PM 37.4 °F 33.8 °F 33.8 °F 87% 30.07 in 10.0 mi West 4.6 mph - N/A   Overcast
10:35 PM 35.6 °F 30.7 °F 33.8 °F 93% 30.07 in 10.0 mi West 5.8 mph - N/A   Overcast
10:55 PM 37.4 °F 32.8 °F 33.8 °F 87% 30.08 in 10.0 mi West 5.8 mph - N/A   Overcast
11:15 PM 37.4 °F 33.8 °F 33.8 °F 87% 30.08 in 10.0 mi West 4.6 mph - N/A   Overcast
11:35 PM 37.4 °F 32.8 °F 33.8 °F 87% 30.08 in 10.0 mi West 5.8 mph - N/A   Overcast
11:55 PM 37.4 °F 32.8 °F 33.8 °F 87% 30.08 in 10.0 mi West 5.8 mph - N/A   Overcast